Weather History for KVPZ - November, 2012

Change the Weather History Date:

Wednesday, November 14, 2012

  Actual Average Record
Temperature  
Mean Temperature 33 °F 42 °F  
Max Temperature 43 °F 50 °F 65 °F (2009)
Min Temperature 23 °F 34 °F 18 °F (2014)
Degree Days  
Heating Degree Days 32 23  
Month to date heating degree days 326 287  
Since 1 July heating degree days 893 817  
Cooling Degree Days 0 0  
Month to date cooling degree days 0 0  
Year to date cooling degree days 1054 713  
Moisture  
Dew Point 23 °F    
Average Humidity 73    
Maximum Humidity 89    
Minimum Humidity 49    
Precipitation  
Precipitation 0.00 in 0.11 in 0.22 in (2005)
Month to date precipitation 0.27 1.71  
Year to date precipitation 24.18 33.71  
Sea Level Pressure  
Sea Level Pressure 30.50 in    
Wind  
Wind Speed 3 mph (SE)    
Max Wind Speed 13 mph    
Max Gust Speed 17 mph    
Visibility 10 miles    
Events      
T = Trace of Precipitation, MM = Missing Value Source: NWS Daily Summary

Daily Weather History Graph

Daily Weather History Graph

Search for Another Location

Airport or City:

Trip Planner

Search our weather history database for the weather conditions in past years. The results will help you decide how hot, cold, wet, or windy it might be!

Date:

Astronomy

Nov. 14, 2012 Rise Set
Actual Time 6:35 AM CST 4:28 PM CST
Civil Twilight 6:06 AM CST 4:58 PM CST
Nautical Twilight 5:32 AM CST 5:31 PM CST
Astronomical Twilight 5:00 AM CST 6:04 PM CST
Moon 7:25 AM CST (11/14) 5:16 PM CST (11/14)
Length of Visible Light 10h 52m
Length of Day
9h 52m
New Moon, 1% of the Moon is Illuminated
Nov 14
New Moon
Nov 20
First Quarter
Nov 28
Full
Dec 6
Last Quarter
Dec 13
New

Hourly Weather History & Observations

Time (CST) Temp. Windchill Dew Point Humidity Pressure Visibility Wind Dir Wind Speed Gust Speed Precip Events Conditions
12:53 AM 26.1 °F - 19.9 °F 78% 30.54 in 10.0 mi Calm Calm - N/A   Clear
1:53 AM 24.1 °F - 19.9 °F 84% 30.55 in 10.0 mi Calm Calm - N/A   Clear
2:53 AM 25.0 °F - 19.9 °F 81% 30.55 in 10.0 mi Calm Calm - N/A   Clear
3:53 AM 24.1 °F - 19.9 °F 84% 30.54 in 10.0 mi Calm Calm - N/A   Clear
4:53 AM 25.0 °F - 21.0 °F 85% 30.55 in 10.0 mi Calm Calm - N/A   Clear
5:53 AM 25.0 °F - 21.0 °F 85% 30.56 in 10.0 mi Calm Calm - N/A   Clear
6:53 AM 25.0 °F - 21.0 °F 85% 30.56 in 10.0 mi Calm Calm - N/A   Clear
7:53 AM 28.9 °F 25.2 °F 23.0 °F 78% 30.58 in 10.0 mi SE 3.5 mph - N/A   Clear
8:53 AM 32.0 °F 28.7 °F 25.0 °F 75% 30.58 in 10.0 mi SSE 3.5 mph - N/A   Clear
9:53 AM 35.1 °F 28.6 °F 26.1 °F 70% 30.58 in 10.0 mi SSE 8.1 mph - N/A   Clear
10:53 AM 39.0 °F 31.8 °F 25.0 °F 57% 30.55 in 10.0 mi SSE 11.5 mph - N/A   Clear
11:53 AM 39.9 °F 32.9 °F 25.0 °F 55% 30.52 in 10.0 mi SE 11.5 mph - N/A   Clear
12:53 PM 42.1 °F 36.6 °F 24.1 °F 49% 30.49 in 10.0 mi SSE 9.2 mph - N/A   Clear
1:53 PM 42.1 °F 37.7 °F 24.1 °F 49% 30.48 in 10.0 mi SSE 6.9 mph - N/A   Clear
2:53 PM 41.0 °F 38.0 °F 24.1 °F 51% 30.47 in 10.0 mi SE 4.6 mph - N/A   Clear
3:53 PM 41.0 °F 35.8 °F 25.0 °F 53% 30.47 in 10.0 mi South 8.1 mph - N/A   Clear
4:53 PM 37.9 °F 35.5 °F 25.0 °F 60% 30.45 in 10.0 mi SE 3.5 mph - N/A   Clear
5:53 PM 34.0 °F - 25.0 °F 70% 30.45 in 10.0 mi Calm Calm - N/A   Clear
6:53 PM 30.9 °F - 25.0 °F 79% 30.46 in 10.0 mi Calm Calm - N/A   Clear
7:53 PM 30.9 °F 27.5 °F 25.0 °F 79% 30.45 in 10.0 mi East 3.5 mph - N/A   Clear
8:53 PM 28.9 °F - 24.1 °F 82% 30.45 in 9.0 mi Calm Calm - N/A   Clear
9:53 PM 28.9 °F - 24.1 °F 82% 30.44 in 8.0 mi Calm Calm - N/A   Clear
10:53 PM 27.0 °F 23.0 °F 24.1 °F 89% 30.43 in 8.0 mi ESE 3.5 mph - N/A   Clear
11:53 PM 27.0 °F 21.6 °F 23.0 °F 85% 30.42 in 7.0 mi ESE 4.6 mph - N/A   Clear